,,Stat6,,Stat2,,Stat8,,Stat9,,Stat10,,Wind1,,Wind1,
time,status,PA1M_AVG,status,PR1M_SUM,status,RH1M_AVG,status,SR1M_AVG,status,TA1M_AVG,status,W1dAve1m,status,W1sAve1m,
2009-04-14, 00:00:00,VALID,916.03,VALID,0,VALID,100,VALID,-0.0339617,VALID,20.8072,VALID,355,VALID,0,
2009-04-14, 00:01:00,VALID,916.032,VALID,0,VALID,100,VALID,-0.0169808,VALID,20.8004,VALID,330,VALID,0,
2009-04-14, 00:02:00,VALID,916.015,VALID,0,VALID,100,VALID,-0.0169808,VALID,20.7875,VALID,310,VALID,0,
2009-04-14, 00:03:00,VALID,916.002,VALID,0,VALID,100,VALID,-0.0509425,VALID,20.7196,VALID,310,VALID,0,
2009-04-14, 00:04:00,VALID,915.995,VALID,0,VALID,100,VALID,-0.0169808,VALID,20.6319,VALID,323,VALID,0,
2009-04-14, 00:05:00,VALID,915.983,VALID,0,VALID,100,VALID,0,VALID,20.6057,VALID,333,VALID,0,
2009-04-14, 00:06:00,VALID,915.972,VALID,0,VALID,100,VALID,-0.0169808,VALID,20.6906,VALID,359,VALID,0,
2009-04-14, 00:07:00,VALID,915.952,VALID,0,VALID,100,VALID,-0.101885,VALID,20.7268,VALID,360,VALID,0,
2009-04-14, 00:08:00,VALID,915.937,VALID,0,VALID,100,VALID,-0.118866,VALID,20.7493,VALID,360,VALID,0,
2009-04-14, 00:09:00,VALID,915.918,VALID,0,VALID,100,VALID,-0.135847,VALID,20.7758,VALID,360,VALID,0,
2009-04-14, 00:10:00,VALID,915.894,VALID,0,VALID,100,VALID,-0.101885,VALID,20.7988,VALID,360,VALID,0,
2009-04-14, 00:11:00,VALID,915.871,VALID,0,VALID,100,VALID,-0.118866,VALID,20.8023,VALID,360,VALID,0,
2009-04-14, 00:12:00,VALID,915.854,VALID,0,VALID,100,VALID,-0.118866,VALID,20.8315,VALID,360,VALID,0,
2009-04-14, 00:13:00,VALID,915.845,VALID,0,VALID,100,VALID,-0.0849042,VALID,20.8467,VALID,360,VALID,0,
2009-04-14, 00:14:00,VALID,915.817,VALID,0,VALID,100,VALID,-0.101885,VALID,20.821,VALID,360,VALID,0,
2009-04-14, 00:15:00,VALID,915.815,VALID,0,VALID,100,VALID,-0.118866,VALID,20.7793,VALID,360,VALID,0,
2009-04-14, 00:16:00,VALID,915.808,VALID,0,VALID,100,VALID,-0.101885,VALID,20.7733,VALID,360,VALID,0,
2009-04-14, 00:17:00,VALID,915.798,VALID,0,VALID,100,VALID,-0.118866,VALID,20.7563,VALID,360,VALID,0,
2009-04-14, 00:18:00,VALID,915.796,VALID,0,VALID,100,VALID,-0.135847,VALID,20.7498,VALID,360,VALID,0,
2009-04-14, 00:19:00,VALID,915.781,VALID,0,VALID,100,VALID,-0.101885,VALID,20.7596,VALID,360,VALID,0,
2009-04-14, 00:20:00,VALID,915.775,VALID,0,VALID,100,VALID,-0.101885,VALID,20.7558,VALID,360,VALID,0,
2009-04-14, 00:21:00,VALID,915.758,VALID,0,VALID,100,VALID,-0.101885,VALID,20.749,VALID,360,VALID,0,
2009-04-14, 00:22:00,VALID,915.746,VALID,0,VALID,100,VALID,0,VALID,20.745,VALID,360,VALID,0,
2009-04-14, 00:23:00,VALID,915.727,VALID,0,VALID,100,VALID,-0.0169808,VALID,20.7347,VALID,360,VALID,0,
2009-04-14, 00:24:00,VALID,915.713,VALID,0,VALID,100,VALID,0,VALID,20.7355,VALID,360,VALID,0,
2009-04-14, 00:25:00,VALID,915.678,VALID,0,VALID,100,VALID,-0.0169808,VALID,20.7288,VALID,360,VALID,0,
2009-04-14, 00:26:00,VALID,915.668,VALID,0,VALID,100,VALID,-0.0169808,VALID,20.7385,VALID,360,VALID,0,
2009-04-14, 00:27:00,VALID,915.631,VALID,0,VALID,100,VALID,-0.0169808,VALID,20.7515,VALID,360,VALID,0,
2009-04-14, 00:28:00,VALID,915.624,VALID,0,VALID,100,VALID,-0.0169808,VALID,20.7193,VALID,360,VALID,0,
2009-04-14, 00:29:00,VALID,915.605,VALID,0,VALID,100,VALID,0,VALID,20.6604,VALID,360,VALID,0,
2009-04-14, 00:30:00,VALID,915.598,VALID,0,VALID,100,VALID,0,VALID,20.6441,VALID,360,VALID,0,
2009-04-14, 00:31:00,VALID,915.583,VALID,0,VALID,100,VALID,-0.0169808,VALID,20.6017,VALID,360,VALID,0,
2009-04-14, 00:32:00,VALID,915.591,VALID,0,VALID,100,VALID,0,VALID,20.5243,VALID,360,VALID,0,
2009-04-14, 00:33:00,VALID,915.589,VALID,0,VALID,100,VALID,-0.0339617,VALID,20.414,VALID,360,VALID,0,
2009-04-14, 00:34:00,VALID,915.596,VALID,0,VALID,100,VALID,-0.0169808,VALID,20.342,VALID,360,VALID,0,
2009-04-14, 00:35:00,VALID,915.585,VALID,0,VALID,100,VALID,0,VALID,20.3134,VALID,360,VALID,0,
2009-04-14, 00:36:00,VALID,915.598,VALID,0,VALID,100,VALID,0,VALID,20.2674,VALID,360,VALID,0,
2009-04-14, 00:37:00,VALID,915.586,VALID,0,VALID,100,VALID,0,VALID,20.2257,VALID,360,VALID,0,
2009-04-14, 00:38:00,VALID,915.597,VALID,0,VALID,100,VALID,0,VALID,20.2257,VALID,360,VALID,0,
2009-04-14, 00:39:00,VALID,915.589,VALID,0,VALID,100,VALID,-0.0169808,VALID,20.2355,VALID,360,VALID,0,
2009-04-14, 00:40:00,VALID,915.576,VALID,0,VALID,100,VALID,0,VALID,20.2612,VALID,354,VALID,0,
2009-04-14, 00:41:00,VALID,915.578,VALID,0,VALID,100,VALID,0,VALID,20.3331,VALID,352,VALID,0,
2009-04-14, 00:42:00,VALID,915.569,VALID,0,VALID,100,VALID,0,VALID,20.3613,VALID,352,VALID,0,
2009-04-14, 00:43:00,VALID,915.562,VALID,0,VALID,100,VALID,-0.0169808,VALID,20.3753,VALID,352,VALID,0,
2009-04-14, 00:44:00,VALID,915.551,VALID,0,VALID,100,VALID,0,VALID,20.3648,VALID,352,VALID,0,
2009-04-14, 00:45:00,VALID,915.528,VALID,0,VALID,100,VALID,-0.0339617,VALID,20.352,VALID,352,VALID,0,
2009-04-14, 00:46:00,VALID,915.528,VALID,0,VALID,100,VALID,0,VALID,20.3258,VALID,352,VALID,0,
2009-04-14, 00:47:00,VALID,915.533,VALID,0,VALID,100,VALID,0.0169808,VALID,20.3126,VALID,352,VALID,0,
2009-04-14, 00:48:00,VALID,915.552,VALID,0,VALID,100,VALID,0,VALID,20.2941,VALID,352,VALID,0,
2009-04-14, 00:49:00,VALID,915.548,VALID,0,VALID,100,VALID,0,VALID,20.2282,VALID,352,VALID,0,
2009-04-14, 00:50:00,VALID,915.559,VALID,0,VALID,100,VALID,0,VALID,20.193,VALID,352,VALID,0,
2009-04-14, 00:51:00,VALID,915.564,VALID,0,VALID,100,VALID,0,VALID,20.1636,VALID,352,VALID,0,
2009-04-14, 00:52:00,VALID,915.558,VALID,0,VALID,100,VALID,-0.0849042,VALID,20.1881,VALID,352,VALID,0,
2009-04-14, 00:53:00,VALID,915.583,VALID,0,VALID,100,VALID,-0.0849042,VALID,20.22,VALID,352,VALID,0,
2009-04-14, 00:54:00,VALID,915.583,VALID,0,VALID,100,VALID,-0.101885,VALID,20.246,VALID,352,VALID,0,
2009-04-14, 00:55:00,VALID,915.585,VALID,0,VALID,100,VALID,-0.101885,VALID,20.2495,VALID,352,VALID,0,
2009-04-14, 00:56:00,VALID,915.58,VALID,0,VALID,100,VALID,-0.118866,VALID,20.233,VALID,352,VALID,0,
2009-04-14, 00:57:00,VALID,915.579,VALID,0,VALID,100,VALID,-0.101885,VALID,20.1908,VALID,352,VALID,0,
2009-04-14, 00:58:00,VALID,915.564,VALID,0,VALID,100,VALID,-0.118866,VALID,20.1651,VALID,353,VALID,0,
2009-04-14, 00:59:00,VALID,915.557,VALID,0,VALID,100,VALID,-0.135847,VALID,20.1521,VALID,359,VALID,0.327934,
2009-04-14, 01:00:00,VALID,915.555,VALID,0,VALID,100,VALID,-0.118866,VALID,20.1653,VALID,6,VALID,0,
2009-04-14, 01:01:00,VALID,915.551,VALID,0,VALID,100,VALID,-0.101885,VALID,20.1878,VALID,6,VALID,0,
2009-04-14, 01:02:00,VALID,915.535,VALID,0,VALID,100,VALID,-0.101885,VALID,20.204,VALID,6,VALID,0,
2009-04-14, 01:03:00,VALID,915.527,VALID,0,VALID,100,VALID,-0.101885,VALID,20.2073,VALID,7,VALID,0,
2009-04-14, 01:04:00,VALID,915.524,VALID,0,VALID,100,VALID,-0.0849042,VALID,20.1973,VALID,8,VALID,0,
2009-04-14, 01:05:00,VALID,915.5,VALID,0,VALID,100,VALID,-0.101885,VALID,20.227,VALID,8,VALID,0,
2009-04-14, 01:06:00,VALID,915.493,VALID,0,VALID,100,VALID,-0.0849042,VALID,20.256,VALID,8,VALID,0,
2009-04-14, 01:07:00,VALID,915.491,VALID,0,VALID,100,VALID,-0.0169808,VALID,20.2736,VALID,9,VALID,0,
2009-04-14, 01:08:00,VALID,915.484,VALID,0,VALID,100,VALID,-0.0169808,VALID,20.2612,VALID,9,VALID,0,
2009-04-14, 01:09:00,VALID,915.478,VALID,0,VALID,100,VALID,0,VALID,20.2412,VALID,38,VALID,0,
2009-04-14, 01:10:00,VALID,915.463,VALID,0,VALID,100,VALID,0.0169808,VALID,20.2444,VALID,57,VALID,0,
2009-04-14, 01:11:00,VALID,915.45,VALID,0,VALID,100,VALID,0,VALID,20.2379,VALID,64,VALID,0,
2009-04-14, 01:12:00,VALID,915.43,VALID,0,VALID,100,VALID,0.0169808,VALID,20.2217,VALID,63,VALID,0,
2009-04-14, 01:13:00,VALID,915.421,VALID,0,VALID,100,VALID,0,VALID,20.2087,VALID,77,VALID,0,
2009-04-14, 01:14:00,VALID,915.419,VALID,0,VALID,100,VALID,0,VALID,20.1763,VALID,78,VALID,0,
2009-04-14, 01:15:00,VALID,915.389,VALID,0,VALID,100,VALID,0,VALID,20.1341,VALID,66,VALID,0,
2009-04-14, 01:16:00,VALID,915.388,VALID,0,VALID,100,VALID,0,VALID,20.1049,VALID,54,VALID,0,
2009-04-14, 01:17:00,VALID,915.38,VALID,0,VALID,100,VALID,0,VALID,20.0949,VALID,54,VALID,0,
2009-04-14, 01:18:00,VALID,915.349,VALID,0,VALID,100,VALID,0,VALID,20.1209,VALID,54,VALID,0,
2009-04-14, 01:19:00,VALID,915.334,VALID,0,VALID,100,VALID,0.0169808,VALID,20.1531,VALID,55,VALID,0,
2009-04-14, 01:20:00,VALID,915.322,VALID,0,VALID,100,VALID,0.0339617,VALID,20.1893,VALID,119,VALID,0,
2009-04-14, 01:21:00,VALID,915.298,VALID,0,VALID,100,VALID,-0.0169808,VALID,20.1925,VALID,119,VALID,0,
2009-04-14, 01:22:00,VALID,915.278,VALID,0,VALID,100,VALID,-0.0849042,VALID,20.2135,VALID,120,VALID,0,
2009-04-14, 01:23:00,VALID,915.257,VALID,0,VALID,100,VALID,-0.101885,VALID,20.197,VALID,121,VALID,0,
2009-04-14, 01:24:00,VALID,915.235,VALID,0,VALID,100,VALID,-0.101885,VALID,20.1848,VALID,121,VALID,0,
2009-04-14, 01:25:00,VALID,915.221,VALID,0,VALID,100,VALID,-0.101885,VALID,20.1356,VALID,121,VALID,0,
2009-04-14, 01:26:00,VALID,915.183,VALID,0,VALID,100,VALID,-0.101885,VALID,20.1421,VALID,121,VALID,0,
2009-04-14, 01:27:00,VALID,915.17,VALID,0,VALID,100,VALID,-0.101885,VALID,20.1227,VALID,121,VALID,0,
2009-04-14, 01:28:00,VALID,915.146,VALID,0,VALID,100,VALID,-0.0679233,VALID,20.1294,VALID,121,VALID,0,
2009-04-14, 01:29:00,VALID,915.13,VALID,0,VALID,100,VALID,-0.0679233,VALID,20.1583,VALID,120,VALID,0,
2009-04-14, 01:30:00,VALID,915.122,VALID,0,VALID,100,VALID,-0.101885,VALID,20.1713,VALID,120,VALID,0,
2009-04-14, 01:31:00,VALID,915.12,VALID,0,VALID,100,VALID,-0.0849042,VALID,20.1876,VALID,120,VALID,0,
2009-04-14, 01:32:00,VALID,915.104,VALID,0,VALID,100,VALID,-0.0849042,VALID,20.1843,VALID,120,VALID,0,
2009-04-14, 01:33:00,VALID,915.086,VALID,0,VALID,100,VALID,-0.101885,VALID,20.194,VALID,120,VALID,0,
2009-04-14, 01:34:00,VALID,915.081,VALID,0,VALID,100,VALID,-0.101885,VALID,20.2143,VALID,120,VALID,0,
2009-04-14, 01:35:00,VALID,915.059,VALID,0,VALID,100,VALID,-0.101885,VALID,20.2073,VALID,121,VALID,0,
2009-04-14, 01:36:00,VALID,915.036,VALID,0,VALID,100,VALID,-0.101885,VALID,20.207,VALID,121,VALID,0,
2009-04-14, 01:37:00,VALID,915.024,VALID,0,VALID,100,VALID,-0.0339617,VALID,20.1671,VALID,127,VALID,0,
2009-04-14, 01:38:00,VALID,915.01,VALID,0,VALID,100,VALID,-0.0509425,VALID,20.1578,VALID,153,VALID,0,
2009-04-14, 01:39:00,VALID,914.988,VALID,0,VALID,100,VALID,-0.0509425,VALID,20.1751,VALID,158,VALID,0,
2009-04-14, 01:40:00,VALID,914.971,VALID,0,VALID,100,VALID,-0.0339617,VALID,20.1713,VALID,159,VALID,0,
2009-04-14, 01:41:00,VALID,914.944,VALID,0,VALID,100,VALID,-0.0849042,VALID,20.1713,VALID,163,VALID,0,
2009-04-14, 01:42:00,VALID,914.92,VALID,0,VALID,100,VALID,-0.0849042,VALID,20.1813,VALID,164,VALID,0,
2009-04-14, 01:43:00,VALID,914.901,VALID,0,VALID,100,VALID,-0.0509425,VALID,20.1583,VALID,156,VALID,0,
2009-04-14, 01:44:00,VALID,914.893,VALID,0,VALID,100,VALID,-0.0509425,VALID,20.1386,VALID,153,VALID,0,
2009-04-14, 01:45:00,VALID,914.871,VALID,0,VALID,100,VALID,-0.0509425,VALID,20.1027,VALID,154,VALID,0,
2009-04-14, 01:46:00,VALID,914.865,VALID,0,VALID,100,VALID,-0.0679233,VALID,20.0934,VALID,147,VALID,0,
2009-04-14, 01:47:00,VALID,914.857,VALID,0,VALID,100,VALID,-0.0509425,VALID,20.087,VALID,150,VALID,0,
2009-04-14, 01:48:00,VALID,914.843,VALID,0,VALID,100,VALID,-0.0509425,VALID,20.0905,VALID,135,VALID,0,
2009-04-14, 01:49:00,VALID,914.834,VALID,0,VALID,100,VALID,-0.101885,VALID,20.084,VALID,142,VALID,0,
2009-04-14, 01:50:00,VALID,914.807,VALID,0,VALID,100,VALID,-0.0849042,VALID,20.0872,VALID,138,VALID,0,
2009-04-14, 01:51:00,VALID,914.808,VALID,0,VALID,100,VALID,-0.101885,VALID,20.0805,VALID,135,VALID,0.0814732,
2009-04-14, 01:52:00,VALID,914.792,VALID,0,VALID,100,VALID,-0.0849042,VALID,20.087,VALID,138,VALID,0,
2009-04-14, 01:53:00,VALID,914.781,VALID,0,VALID,100,VALID,-0.0679233,VALID,20.0807,VALID,134,VALID,0.0405869,
2009-04-14, 01:54:00,VALID,914.754,VALID,0,VALID,100,VALID,-0.101885,VALID,20.0807,VALID,137,VALID,0.156795,
2009-04-14, 01:55:00,VALID,914.739,VALID,0,VALID,100,VALID,-0.0679233,VALID,20.0805,VALID,143,VALID,0,
2009-04-14, 01:56:00,VALID,914.712,VALID,0,VALID,100,VALID,-0.101885,VALID,20.087,VALID,139,VALID,0,
2009-04-14, 01:57:00,VALID,914.696,VALID,0,VALID,100,VALID,-0.0849042,VALID,20.0937,VALID,135,VALID,0.00106534,
2009-04-14, 01:58:00,VALID,914.686,VALID,0,VALID,100,VALID,-0.0849042,VALID,20.1064,VALID,143,VALID,0.00223214,
2009-04-14, 01:59:00,VALID,914.661,VALID,0,VALID,100,VALID,-0.0679233,VALID,20.1062,VALID,147,VALID,0.157895,
2009-04-14, 02:00:00,VALID,914.651,VALID,0,VALID,100,VALID,-0.0679233,VALID,20.1259,VALID,149,VALID,0.0870276,
2009-04-14, 02:01:00,VALID,914.636,VALID,0,VALID,100,VALID,-0.0679233,VALID,20.1356,VALID,131,VALID,0.272166,
2009-04-14, 02:02:00,VALID,914.638,VALID,0,VALID,100,VALID,-0.0849042,VALID,20.1421,VALID,140,VALID,0,
2009-04-14, 02:03:00,VALID,914.631,VALID,0,VALID,100,VALID,-0.0679233,VALID,20.1419,VALID,141,VALID,0,
2009-04-14, 02:04:00,VALID,914.62,VALID,0,VALID,100,VALID,-0.0169808,VALID,20.1514,VALID,140,VALID,0.0078125,
2009-04-14, 02:05:00,VALID,914.625,VALID,0,VALID,100,VALID,-0.101885,VALID,20.1451,VALID,137,VALID,0.0234375,
2009-04-14, 02:06:00,VALID,914.618,VALID,0,VALID,100,VALID,-0.0339617,VALID,20.1484,VALID,134,VALID,0.0608648,
2009-04-14, 02:07:00,VALID,914.608,VALID,0,VALID,100,VALID,0.0849042,VALID,20.1568,VALID,137,VALID,0.00253906,
2009-04-14, 02:08:00,VALID,914.596,VALID,0,VALID,100,VALID,0.0509425,VALID,20.1471,VALID,136,VALID,0.108467,
2009-04-14, 02:09:00,VALID,914.588,VALID,0,VALID,100,VALID,0.0509425,VALID,20.1603,VALID,124,VALID,0.0682664,
2009-04-14, 02:10:00,VALID,914.571,VALID,0,VALID,100,VALID,0,VALID,20.1703,VALID,121,VALID,0,
2009-04-14, 02:11:00,VALID,914.564,VALID,0,VALID,100,VALID,0.0169808,VALID,20.173,VALID,132,VALID,0.0388808,
2009-04-14, 02:12:00,VALID,914.568,VALID,0,VALID,100,VALID,0.0509425,VALID,20.1895,VALID,122,VALID,0.00218023,
2009-04-14, 02:13:00,VALID,914.55,VALID,0,VALID,100,VALID,0.0169808,VALID,20.186,VALID,129,VALID,0.00133384,
2009-04-14, 02:14:00,VALID,914.547,VALID,0,VALID,100,VALID,0,VALID,20.2025,VALID,129,VALID,0.0522693,
2009-04-14, 02:15:00,VALID,914.534,VALID,0,VALID,100,VALID,0,VALID,20.2055,VALID,130,VALID,0,
2009-04-14, 02:16:00,VALID,914.521,VALID,0,VALID,100,VALID,0.0679233,VALID,20.202,VALID,138,VALID,0,
2009-04-14, 02:17:00,VALID,914.504,VALID,0,VALID,100,VALID,0.0849042,VALID,20.2023,VALID,146,VALID,0.046875,
2009-04-14, 02:18:00,VALID,914.497,VALID,0,VALID,100,VALID,0.0679233,VALID,20.2023,VALID,140,VALID,0,
2009-04-14, 02:19:00,VALID,914.476,VALID,0,VALID,100,VALID,0.0169808,VALID,20.1893,VALID,146,VALID,0,
2009-04-14, 02:20:00,VALID,914.474,VALID,0,VALID,100,VALID,0.0339617,VALID,20.1725,VALID,141,VALID,0,
2009-04-14, 02:21:00,VALID,914.46,VALID,0,VALID,100,VALID,0.0509425,VALID,20.1628,VALID,139,VALID,0,
2009-04-14, 02:22:00,VALID,914.451,VALID,0,VALID,100,VALID,-0.0339617,VALID,20.1551,VALID,131,VALID,0,
2009-04-14, 02:23:00,VALID,914.444,VALID,0,VALID,100,VALID,-0.0849042,VALID,20.1389,VALID,126,VALID,0,
2009-04-14, 02:24:00,VALID,914.435,VALID,0,VALID,100,VALID,-0.0339617,VALID,20.1381,VALID,129,VALID,0.191146,
2009-04-14, 02:25:00,VALID,914.421,VALID,0,VALID,100,VALID,-0.0509425,VALID,20.1451,VALID,129,VALID,0.0423611,
2009-04-14, 02:26:00,VALID,914.413,VALID,0,VALID,100,VALID,-0.0509425,VALID,20.1419,VALID,135,VALID,0.318407,
2009-04-14, 02:27:00,VALID,914.385,VALID,0,VALID,100,VALID,-0.0169808,VALID,20.1254,VALID,129,VALID,0.130814,
2009-04-14, 02:28:00,VALID,914.374,VALID,0,VALID,100,VALID,-0.0339617,VALID,20.1219,VALID,138,VALID,0.228237,
2009-04-14, 02:29:00,VALID,914.376,VALID,0,VALID,100,VALID,-0.0509425,VALID,20.1224,VALID,142,VALID,0.117773,
2009-04-14, 02:30:00,VALID,914.38,VALID,0,VALID,100,VALID,-0.0169808,VALID,20.1122,VALID,142,VALID,0.191146,
2009-04-14, 02:31:00,VALID,914.368,VALID,0,VALID,100,VALID,-0.0509425,VALID,20.1192,VALID,141,VALID,0.459263,
2009-04-14, 02:32:00,VALID,914.352,VALID,0,VALID,100,VALID,-0.0339617,VALID,20.1324,VALID,142,VALID,0.23609,
2009-04-14, 02:33:00,VALID,914.349,VALID,0,VALID,100,VALID,-0.0679233,VALID,20.1324,VALID,152,VALID,0.216751,
2009-04-14, 02:34:00,VALID,914.338,VALID,0,VALID,100,VALID,-0.0849042,VALID,20.1321,VALID,152,VALID,0.0024858,
2009-04-14, 02:35:00,VALID,914.332,VALID,0,VALID,100,VALID,-0.0509425,VALID,20.1251,VALID,142,VALID,0.298651,
2009-04-14, 02:36:00,VALID,914.321,VALID,0,VALID,100,VALID,-0.0509425,VALID,20.1259,VALID,143,VALID,0.406605,
2009-04-14, 02:37:00,VALID,914.315,VALID,0,VALID,100,VALID,-0.0509425,VALID,20.1354,VALID,145,VALID,0.361192,
2009-04-14, 02:38:00,VALID,914.298,VALID,0,VALID,100,VALID,-0.0679233,VALID,20.1391,VALID,158,VALID,0.287919,
2009-04-14, 02:39:00,VALID,914.283,VALID,0,VALID,100,VALID,-0.0679233,VALID,20.1326,VALID,149,VALID,0.317769,
2009-04-14, 02:40:00,VALID,914.262,VALID,0,VALID,100,VALID,-0.0679233,VALID,20.1192,VALID,147,VALID,0.464748,
2009-04-14, 02:41:00,VALID,914.265,VALID,0,VALID,100,VALID,-0.0509425,VALID,20.1259,VALID,154,VALID,0.348366,
2009-04-14, 02:42:00,VALID,914.254,VALID,0,VALID,100,VALID,-0.0849042,VALID,20.1192,VALID,145,VALID,0.292969,
2009-04-14, 02:43:00,VALID,914.249,VALID,0,VALID,100,VALID,-0.0339617,VALID,20.1162,VALID,164,VALID,0,
2009-04-14, 02:44:00,VALID,914.247,VALID,0,VALID,100,VALID,-0.0679233,VALID,20.1227,VALID,159,VALID,0.364901,
2009-04-14, 02:45:00,VALID,914.243,VALID,0,VALID,100,VALID,-0.0679233,VALID,20.1259,VALID,143,VALID,0.0359738,
2009-04-14, 02:46:00,VALID,914.25,VALID,0,VALID,100,VALID,0,VALID,20.1221,VALID,141,VALID,0.0271484,
2009-04-14, 02:47:00,VALID,914.233,VALID,0,VALID,100,VALID,-0.101885,VALID,20.1326,VALID,156,VALID,0,
2009-04-14, 02:48:00,VALID,914.231,VALID,0,VALID,100,VALID,-0.0509425,VALID,20.1289,VALID,183,VALID,0.0774148,
2009-04-14, 02:49:00,VALID,914.25,VALID,0,VALID,100,VALID,-0.0509425,VALID,20.1189,VALID,165,VALID,0,
2009-04-14, 02:50:00,VALID,914.252,VALID,0,VALID,100,VALID,-0.0509425,VALID,20.1092,VALID,164,VALID,0,
2009-04-14, 02:51:00,VALID,914.27,VALID,0,VALID,100,VALID,-0.0679233,VALID,20.1127,VALID,172,VALID,0.440799,
2009-04-14, 02:52:00,VALID,914.264,VALID,0,VALID,100,VALID,-0.0679233,VALID,20.1221,VALID,164,VALID,0.20484,
2009-04-14, 02:53:00,VALID,914.265,VALID,0,VALID,100,VALID,-0.0169808,VALID,20.1289,VALID,157,VALID,0.286222,
2009-04-14, 02:54:00,VALID,914.259,VALID,0,VALID,100,VALID,-0.0849042,VALID,20.1192,VALID,172,VALID,0,
2009-04-14, 02:55:00,VALID,914.243,VALID,0,VALID,100,VALID,-0.0679233,VALID,20.1162,VALID,165,VALID,0,
2009-04-14, 02:56:00,VALID,914.249,VALID,0,VALID,100,VALID,-0.0679233,VALID,20.1194,VALID,166,VALID,0.0868459,
2009-04-14, 02:57:00,VALID,914.234,VALID,0,VALID,100,VALID,-0.0169808,VALID,20.1127,VALID,174,VALID,0.00533537,
2009-04-14, 02:58:00,VALID,914.23,VALID,0,VALID,100,VALID,-0.0679233,VALID,20.1124,VALID,175,VALID,0.00104167,
2009-04-14, 02:59:00,VALID,914.226,VALID,0,VALID,100,VALID,-0.0509425,VALID,20.1157,VALID,177,VALID,0,
2009-04-14, 03:00:00,VALID,914.226,VALID,0,VALID,100,VALID,-0.0169808,VALID,20.1224,VALID,180,VALID,0,
2009-04-14, 03:01:00,VALID,914.226,VALID,0,VALID,100,VALID,-0.0679233,VALID,20.1192,VALID,192,VALID,0,
2009-04-14, 03:02:00,VALID,914.229,VALID,0,VALID,100,VALID,-0.0509425,VALID,20.1356,VALID,192,VALID,0,
2009-04-14, 03:03:00,VALID,914.227,VALID,0,VALID,100,VALID,-0.0679233,VALID,20.1319,VALID,183,VALID,0,
2009-04-14, 03:04:00,VALID,914.24,VALID,0,VALID,100,VALID,-0.0509425,VALID,20.1389,VALID,179,VALID,0,
2009-04-14, 03:05:00,VALID,914.247,VALID,0,VALID,100,VALID,-0.0849042,VALID,20.1384,VALID,179,VALID,0,
2009-04-14, 03:06:00,VALID,914.256,VALID,0,VALID,100,VALID,-0.0509425,VALID,20.1583,VALID,173,VALID,0,
2009-04-14, 03:07:00,VALID,914.26,VALID,0,VALID,100,VALID,-0.0339617,VALID,20.1646,VALID,164,VALID,0,
2009-04-14, 03:08:00,VALID,914.27,VALID,0,VALID,100,VALID,-0.0849042,VALID,20.1543,VALID,164,VALID,0,
2009-04-14, 03:09:00,VALID,914.267,VALID,0,VALID,100,VALID,-0.101885,VALID,20.1613,VALID,165,VALID,0,
2009-04-14, 03:10:00,VALID,914.281,VALID,0,VALID,100,VALID,-0.101885,VALID,20.1713,VALID,165,VALID,0,
2009-04-14, 03:11:00,VALID,914.279,VALID,0,VALID,100,VALID,-0.0849042,VALID,20.1616,VALID,164,VALID,0,
2009-04-14, 03:12:00,VALID,914.28,VALID,0,VALID,100,VALID,-0.0679233,VALID,20.1643,VALID,154,VALID,0,
2009-04-14, 03:13:00,VALID,914.279,VALID,0,VALID,100,VALID,-0.0169808,VALID,20.1543,VALID,147,VALID,0,
2009-04-14, 03:14:00,VALID,914.283,VALID,0,VALID,100,VALID,-0.0339617,VALID,20.1681,VALID,147,VALID,0,
2009-04-14, 03:15:00,VALID,914.28,VALID,0,VALID,100,VALID,-0.0509425,VALID,20.1551,VALID,151,VALID,0,
2009-04-14, 03:16:00,VALID,914.29,VALID,0,VALID,100,VALID,-0.0679233,VALID,20.1421,VALID,155,VALID,0,
2009-04-14, 03:17:00,VALID,914.292,VALID,0,VALID,100,VALID,-0.0849042,VALID,20.1389,VALID,153,VALID,0,
2009-04-14, 03:18:00,VALID,914.272,VALID,0,VALID,100,VALID,-0.0509425,VALID,20.1129,VALID,152,VALID,0,
2009-04-14, 03:19:00,VALID,914.275,VALID,0,VALID,100,VALID,-0.0849042,VALID,20.1097,VALID,154,VALID,0,
2009-04-14, 03:20:00,VALID,914.263,VALID,0,VALID,100,VALID,-0.0339617,VALID,20.0867,VALID,155,VALID,0,
2009-04-14, 03:21:00,VALID,914.264,VALID,0,VALID,100,VALID,-0.0849042,VALID,20.087,VALID,161,VALID,0,
2009-04-14, 03:22:00,VALID,914.265,VALID,0,VALID,100,VALID,-0.0509425,VALID,20.1029,VALID,168,VALID,0,
2009-04-14, 03:23:00,VALID,914.28,VALID,0,VALID,100,VALID,-0.0339617,VALID,20.0997,VALID,156,VALID,0,
2009-04-14, 03:24:00,VALID,914.267,VALID,0,VALID,100,VALID,-0.101885,VALID,20.0902,VALID,156,VALID,0,
2009-04-14, 03:25:00,VALID,914.261,VALID,0,VALID,100,VALID,-0.0679233,VALID,20.087,VALID,151,VALID,0,
2009-04-14, 03:26:00,VALID,914.277,VALID,0,VALID,100,VALID,-0.0849042,VALID,20.0672,VALID,156,VALID,0.078125,
2009-04-14, 03:27:00,VALID,914.285,VALID,0,VALID,100,VALID,-0.118866,VALID,20.0805,VALID,155,VALID,0.00327035,
2009-04-14, 03:28:00,VALID,914.291,VALID,0,VALID,100,VALID,-0.0339617,VALID,20.0967,VALID,160,VALID,0.000710227,
2009-04-14, 03:29:00,VALID,914.279,VALID,0,VALID,100,VALID,-0.101885,VALID,20.0932,VALID,147,VALID,0,
2009-04-14, 03:30:00,VALID,914.291,VALID,0,VALID,100,VALID,-0.0849042,VALID,20.0899,VALID,151,VALID,0.0012718,
2009-04-14, 03:31:00,VALID,914.28,VALID,0,VALID,100,VALID,-0.118866,VALID,20.1102,VALID,149,VALID,0,
2009-04-14, 03:32:00,VALID,914.267,VALID,0,VALID,100,VALID,-0.0849042,VALID,20.0967,VALID,139,VALID,0,
2009-04-14, 03:33:00,VALID,914.268,VALID,0,VALID,100,VALID,-0.0849042,VALID,20.1062,VALID,129,VALID,0.0935595,
2009-04-14, 03:34:00,VALID,914.258,VALID,0,VALID,100,VALID,-0.0509425,VALID,20.0967,VALID,125,VALID,0.00114329,
2009-04-14, 03:35:00,VALID,914.262,VALID,0,VALID,100,VALID,-0.101885,VALID,20.1029,VALID,126,VALID,0.0377907,
2009-04-14, 03:36:00,VALID,914.263,VALID,0,VALID,100,VALID,-0.0679233,VALID,20.1092,VALID,124,VALID,0.0307049,
2009-04-14, 03:37:00,VALID,914.273,VALID,0,VALID,100,VALID,0.0169808,VALID,20.0982,VALID,123,VALID,0,
2009-04-14, 03:38:00,VALID,914.279,VALID,0,VALID,100,VALID,0.0339617,VALID,20.0817,VALID,100,VALID,0.0802557,
2009-04-14, 03:39:00,VALID,914.285,VALID,0,VALID,100,VALID,0,VALID,20.0792,VALID,125,VALID,0.00218023,
2009-04-14, 03:40:00,VALID,914.286,VALID,0,VALID,100,VALID,0.0169808,VALID,20.0432,VALID,97,VALID,0.18843,
2009-04-14, 03:41:00,VALID,914.296,VALID,0,VALID,100,VALID,0.0169808,VALID,20.0175,VALID,106,VALID,0.00457317,
2009-04-14, 03:42:00,VALID,914.288,VALID,0,VALID,100,VALID,0,VALID,19.9978,VALID,109,VALID,0,
2009-04-14, 03:43:00,VALID,914.294,VALID,0,VALID,100,VALID,0,VALID,19.9983,VALID,129,VALID,0.00117188,
2009-04-14, 03:44:00,VALID,914.306,VALID,0,VALID,100,VALID,0,VALID,19.9813,VALID,148,VALID,0.000571646,
2009-04-14, 03:45:00,VALID,914.299,VALID,0,VALID,100,VALID,0,VALID,19.9716,VALID,136,VALID,0.367365,
2009-04-14, 03:46:00,VALID,914.293,VALID,0,VALID,100,VALID,0.0169808,VALID,19.9651,VALID,122,VALID,0.219113,
2009-04-14, 03:47:00,VALID,914.306,VALID,0,VALID,100,VALID,0.0679233,VALID,19.9491,VALID,119,VALID,0.397879,